Starlink 33718

operational
NORAD ID: 63476 Int'l Des: 2025-070 Owner: SPXS Country: US Constellation: starlink
LEOCIRCULAR

About Starlink 33718

Description loading...

Live Position

Loading 3D Globe...

Upcoming Passes

Altitude History

Altitude vs Time

uPlot chart will show altitude changes over time

Two-Line Element Set

1 63476U 25070S 25353.28901594 .00020553 00000-0 75398-3 0 9996
2 63476 42.9986 353.5580 0001432 267.3871 92.6816 15.27594350 40680
Epoch: Dec 19, 2025 • Age: 20 hours

Current Status

Altitude 494.7 km
Velocity 7.62 km/s
Sub-Earth Point -41.70°S, 108.48°E
Launch Date Apr 6, 2025
Age 0.7 years
Type internet

Technical Details

Classification Payload
Mass 575.00 kg
Dry Mass 530.00 kg
Total Mass 575.00 kg
Length 0.30 m
Diameter 4.10 m
Span 29.00 m
Shape Box + pan
Manufacturer SPXS
Bus Type Starlink V2MO
Phase Status In Orbit
Owner/State SPXS/US

Large Constellations

Loading constellations...